P/2019 LD2 ( ATLAS )

Japanese version
Home page
Updated on June 15, 2021

---------------------------------------------------------------------

* Profile

Discovery Date June 10, 2019
Magnitude 18.4 mag
Discoverer Asteroid Terrestrial-Impact Last Alert System (ATLAS) search program

* Pictures

* Orbital Elements

Epoch 2020 Apr. 21.0 TT = JDT 2458960.5                                         
T 2020 Apr. 10.55040 TT                                 Rudenko                 
q   4.5780640            (2000.0)            P               Q                  
n   0.08082290     Peri.  123.41942     +0.54766195     +0.83669936             
a   5.2980141      Node   179.78296     -0.81865355     +0.53603682             
e   0.1358905      Incl.   11.54637     -0.17283735     +0.11224400             
P  12.2                                                                         
From 365 observations 2018 May 9-2020 Nov. 14, mean residual 0".8.              

* Magnitudes Graph

        m1 = 1.7 + 5 log d + 20.0 log r

---------------------------------------------------------------------

The orbital elements are published on M.P.E.C. 2020-W26.
The magnitudes graphs are made with Comet for Windows.

---------------------------------------------------------------------

Copyright(C) Seiichi Yoshida (comet@aerith.net). All rights reserved.